Погода Рудня

Погода Рудня : погода сейчас, прогноз погоды и архив. Всё, что Вы хотите узнать о погоде Рудня!

Поиск расширенной информации на нашем сайте:

Другие новости

Новости СМИ2

Главная страница сайта

Новости сайта

03.07.2017

Напоминаем, что на нашем специализированном сайте Метеоцентр.Азия вы можете получить высокодетализированные автоматические прогнозы погоды по пунктам России, СНГ и мира в авиационном формате (включающие направление и скорость ветра, видимость, явления погоды, количество и форму облачности, нижнюю и верхнюю границу облачности).

Рекомендуем: холодильная витрина

Погода Рудня - сегодня

Время (UTC), дата Ветер
(°,м/с) 
Видим.   Явления Облачность Т
(°С)
Тd
(°С)
f(%) Тe
(°С)
Pmin
(гПа)
dP
(гПа)
Po
(мм)
O2
(г/м3)
Тmin Tmax R s Состояние
почвы
00 19.09.17 180 (Ю) 10 км    4/0 средняя 
[Ac trans]
+20.4 +8.3 46 +20  1015.1  0.1  751  280           
03 19.09.17 150 (ЮВ) 10 км    3/0 верхняя 
[Ci fib]
+17.2 +8.6 57 +18  1015.7  0.4  751  283  +17.1        сухая 
06 19.09.17 180 (Ю) 10 км    ясно 
+24.8 +7.4 33 +25  1016.2  0.9  752  277           
09 19.09.17 220 (ЮЗ) 10 км    ясно 
+31.9 +2.7 16 +32  1015.4  -0.5  752  271           
12 19.09.17 220 (ЮЗ) 10 км    ясно 
+32.5 +1.4 14 +33  1014.9  -0.5  751  270           
15 19.09.17 230 (ЮЗ) 10 км    ясно 
+26.9 +3.6 22 +27  1015.3  0.2  752  275    +33.1       
18 19.09.17 тихо ()   10 км    ясно 
+18.6 +10.3 58 +20  1017.4  1.7  753  282           
21 19.09.17 330 (СЗ) 10 км    ясно 
+14.7 +10 73 +17  1018  0.5  753  286           
00 20.09.17 310 (СЗ) 10 км    ясно 
+11.8 +8.3 79 +12  1018.7  0.5  753  290           
03 20.09.17 280 (З) 10 км    ясно 
+10.5 +6.7 77 +12  1019.4  0.6  754  291  +10.1        сухая 
06 20.09.17 070 (В) 10 км    ясно 
+19.9 +6.8 43 +21  1019.6  0.7  754  282           
09 20.09.17 060 (СВ) 10 км    ясно 
+27 +7.3 29 +27  1018.8  0.7  754  275           
12 20.09.17 070 (В) 10 км    ясно 
+27.8 +6.7 26 +28  1018.4  -0.4  754  275           
15 20.09.17 060 (СВ) 10 км    4/0 средняя, верхняя 
[Ac trans|Ci fib]
+23 +7.3 36 +23  1019  0.4  754  279    +28.5       
18 20.09.17 060 (СВ) 10 км    ясно 
+19.1 +6.1 43 +21  1019.8  0.6  755  283           
21 20.09.17 080 (В) 10 км    ясно 
+15.7 +7 56 +17  1020.3  0.3  755  286           
00 21.09.17 100 (В) 10 км    ясно 
+15.6 +6.1 53 +16  1020.6  0.3  755  287           
03 21.09.17 070 (В) 10 км    ясно 
+13.1 +6.1 62 +14  1021.6  0.9  756  290  +13.1        сухая 
06 21.09.17 090 (В) 10 км    ясно 
+19.5 +6 41 +20  1021.5  0.2  756  283           
09 21.09.17 100 (В) 10 км    ясно 
+25.9 +5.1 26 +26  1020.7  -0.5  755  277           
12 21.09.17 090 (В) 10 км    ясно 
+26.9 +5.1 25 +27  1020.4  -0.3  755  276           
15 21.09.17 070 (В) 10 км    ясно 
+21.9 +4.7 33 +22  1021.3  0.7  756  281    +27.2       
18 21.09.17 090 (В) 10 км    ясно 
+17.6 +6.2 47 +18  1022.1  0.6  756  285           
21 21.09.17 090 (В) 10 км    ясно 
+15.3 +6.2 55 +16  1023.2  0.9  757  288           
00 22.09.17 080 (В) 10 км    ясно 
+12.9 +6.7 66 +13  1024.1  0.8  758  290           
Время (UTC), дата Ветер
(°,м/с) 
Видим.   Явления Облачность Т
(°С)
Тd
(°С)
f(%) Тe
(°С)
Pmin
(гПа)
dP
(гПа)
Po
(мм)
O2
(г/м3)
Тmin Tmax R s Состояние
почвы

Для получения пояснительной информации подведите курсор к названию столбца.

ПОГОДА Рудня - архив

Всё, что Вы хотите узнать о погоде Рудня - удобно и подробно!

Выберите нужную дату (начиная с 1 января 2015* года) и нажмите кнопку "Найти".
Будут отображены архивные сводки погоды по пункту Рудня, начиная с указанной даты.


Отображать данные в формате CSV (для использования в таблицах Excel)


Внимание! Наш архив погоды предназначен исключительно для личного некоммерческого использования в познавательных целях. Если Вам необходимы официальные справки о состоянии погоды (для производственных, юридических, коммерческих и т.п. целей), обращайтесь в органы Росгидромета.

*Примечание: данная дата относится к архиву по метеостанциям СССР (Россия, СНГ, Балтия).
Архив по метеостанциям Зарубежной Европы и Азии (кроме Китая) хранится 10 дней, по другим регионам земного шара (Китай, Африка, Америка, Австралия, Океания) - 1 день.

Рудня - район местоположения метеостанции


Название, широта, долгота, высота метеостанции:
Рудня 50.8°ш. 44.6°д. 114 м над ур. моря [Российская Федерация]

Дополнительная информация

В oтличие oт бoльшинства пoгoдных сайтoв мы публикуем пoдрoбную метеoинфoрмацию в детальнoм прoфессиoнальнoм фoрмате.

Характеристики температуры и влажнoсти вoздуха измеряются на высoте 2 м в тени вдали oт зданий и деревьев.
Скoрoсть ветра измеряется на высoте 10 м (на урoвне рoста челoвека скoрoсть ветра ниже в 1.5-2 раза). Если метеoстанция нахoдится в гoрoде или в лесу, тo скoрoсть ветра занижена на 2-4 м/с пo сравнению с oткрытым местoм. Скoрoсть ветра над акватoриями крупных рек и oзёр, а также на вершинах хoлмoв на 2-5 м/с выше, чем в oбычных услoвиях.
Атмoсфернoе давление в разных тoчках местнoсти мoжет значительнo oтличаться oт давления на метеoстанции, в зависимoсти oт услoвий рельефа (при пoдъёме на 10 м давление пoнижается примернo на 1 мм рт.ст.).